Location: Amsterdam
(30.7274°N, 84.4357°W)
Time: 07:54:51
(UTC+00:00)

MOZHAYETS 4 - Pass Details

Date: 21 March 2026
Orbit: 642 x 659 km, 98.3° (Epoch: 19 April)

Event Time Altitude Azimuth Distance (km) Brightness Sun altitude
Rises 00:10:14 0° 357° (N) 2,962 11.1 -5.3°
Reaches altitude 10° 00:12:45 10° 344° (NNW) 2,045 10.5 -5.9°
Maximum altitude 00:16:23 25° 289° (WNW) 1,287 10.3 -6.6°
Drops below altitude 10° 00:20:01 10° 234° (SW) 2,030 11.0 -7.4°
Sets 00:22:30 0° 221° (SW) 2,934 11.6 -8.0°
